Location: ???????
(56.2167°N, 38.0500°E)
Time: 13:44:04
(UTC+00:00)

COSMOS 2455 - Pass Details

Date: 19 May 2025
Orbit: 899 x 909 km, 67.1° (Epoch: 20 June)

Event Time Altitude Azimuth Distance (km) Brightness Sun altitude
Rises 23:33:02 0° 316° (NW) 3,546 6.1 -9.1°
Reaches altitude 10° 23:35:33 10° 316° (NW) 2,602 5.4 -8.9°
Maximum altitude 23:41:37 87° 230° (SW) 918 2.9 -8.5°
Drops below altitude 10° 23:47:39 10° 141° (SE) 2,592 5.1 -8.0°
Sets 23:50:09 0° 141° (SE) 3,530 5.8 -7.8°
